Year,Month,Day,Hour,Minute,Value (Times are PST for windgust in km/hr)
2015,12,08,00,00,20.90
2015,12,08,00,01,22.50
2015,12,08,00,02,30.60
2015,12,08,00,03,29.00
2015,12,08,00,04,25.70
2015,12,08,00,05,22.50
2015,12,08,00,06,35.40
2015,12,08,00,07,33.80
2015,12,08,00,08,25.70
2015,12,08,00,09,22.50
2015,12,08,00,10,24.20
2015,12,08,00,11,33.80
2015,12,08,00,12,27.40
2015,12,08,00,13,25.70
2015,12,08,00,14,22.50
2015,12,08,00,15,20.90
2015,12,08,00,16,17.70
2015,12,08,00,17,35.40
2015,12,08,00,18,27.40
2015,12,08,00,19,32.20
2015,12,08,00,20,20.90
2015,12,08,00,21,33.80
2015,12,08,00,22,32.20
2015,12,08,00,23,29.00
2015,12,08,00,24,24.20
2015,12,08,00,25,24.20
2015,12,08,00,26,30.60
2015,12,08,00,27,27.40
2015,12,08,00,28,38.60
2015,12,08,00,29,29.00
2015,12,08,00,30,29.00
2015,12,08,00,31,24.20
2015,12,08,00,32,24.20
2015,12,08,00,33,29.00
2015,12,08,00,34,29.00
2015,12,08,00,35,37.00
2015,12,08,00,36,24.20
2015,12,08,00,37,20.90
2015,12,08,00,38,25.70
2015,12,08,00,39,35.40
2015,12,08,00,40,37.00
2015,12,08,00,41,33.80
2015,12,08,00,42,32.20
2015,12,08,00,43,33.80
2015,12,08,00,44,35.40
2015,12,08,00,45,40.20
2015,12,08,00,46,40.20
2015,12,08,00,47,38.60
2015,12,08,00,48,35.40
2015,12,08,00,49,32.20
2015,12,08,00,50,46.70
2015,12,08,00,51,43.50
2015,12,08,00,52,37.00
2015,12,08,00,53,29.00
2015,12,08,00,54,40.20
2015,12,08,00,55,33.80
2015,12,08,00,56,33.80
2015,12,08,00,57,37.00
2015,12,08,00,58,41.80
2015,12,08,00,59,25.70
2015,12,08,01,00,38.60
2015,12,08,01,01,30.60
2015,12,08,01,02,30.60
2015,12,08,01,03,37.00
2015,12,08,01,04,41.80
2015,12,08,01,05,29.00
2015,12,08,01,06,35.40
2015,12,08,01,07,27.40
2015,12,08,01,08,24.20
2015,12,08,01,09,35.40
2015,12,08,01,10,38.60
2015,12,08,01,11,32.20
2015,12,08,01,12,24.20
2015,12,08,01,13,41.80
2015,12,08,01,14,35.40
2015,12,08,01,15,27.40
2015,12,08,01,16,32.20
2015,12,08,01,17,27.40
2015,12,08,01,18,29.00
2015,12,08,01,19,32.20
2015,12,08,01,20,32.20
2015,12,08,01,21,37.00
2015,12,08,01,22,40.20
2015,12,08,01,23,40.20
2015,12,08,01,24,40.20
2015,12,08,01,25,40.20
2015,12,08,01,26,48.30
2015,12,08,01,27,40.20
2015,12,08,01,28,35.40
2015,12,08,01,29,41.80
2015,12,08,01,30,49.90
2015,12,08,01,31,32.20
2015,12,08,01,32,38.60
2015,12,08,01,33,32.20
2015,12,08,01,34,49.90
2015,12,08,01,35,41.80
2015,12,08,01,36,37.00
2015,12,08,01,37,37.00
2015,12,08,01,38,41.80
2015,12,08,01,39,38.60
2015,12,08,01,40,41.80
2015,12,08,01,41,38.60
2015,12,08,01,42,37.00
2015,12,08,01,43,46.70
2015,12,08,01,44,41.80
2015,12,08,01,45,37.00
2015,12,08,01,46,37.00
2015,12,08,01,47,40.20
2015,12,08,01,48,51.50
2015,12,08,01,49,38.60
2015,12,08,01,50,46.70
2015,12,08,01,51,37.00
2015,12,08,01,52,45.10
2015,12,08,01,53,41.80
2015,12,08,01,54,38.60
2015,12,08,01,55,37.00
2015,12,08,01,56,48.30
2015,12,08,01,57,37.00
2015,12,08,01,58,48.30
2015,12,08,01,59,51.50
2015,12,08,02,00,49.90
2015,12,08,02,01,40.20
2015,12,08,02,02,40.20
2015,12,08,02,03,48.30
2015,12,08,02,04,45.10
2015,12,08,02,05,45.10
2015,12,08,02,06,38.60
2015,12,08,02,07,43.50
2015,12,08,02,08,46.70
2015,12,08,02,09,48.30
2015,12,08,02,10,64.40
2015,12,08,02,11,40.20
2015,12,08,02,12,45.10
2015,12,08,02,13,45.10
2015,12,08,02,14,45.10
2015,12,08,02,15,49.90
2015,12,08,02,16,46.70
2015,12,08,02,17,51.50
2015,12,08,02,18,62.70
2015,12,08,02,19,56.30
2015,12,08,02,20,56.30
2015,12,08,02,21,51.50
2015,12,08,02,22,54.70
2015,12,08,02,23,51.50
2015,12,08,02,24,46.70
2015,12,08,02,25,43.50
2015,12,08,02,26,43.50
2015,12,08,02,27,48.30
2015,12,08,02,28,54.70
2015,12,08,02,29,49.90
2015,12,08,02,30,45.10
2015,12,08,02,31,51.50
2015,12,08,02,32,49.90
2015,12,08,02,33,46.70
2015,12,08,02,34,59.50
2015,12,08,02,35,56.30
2015,12,08,02,36,51.50
2015,12,08,02,37,45.10
2015,12,08,02,38,37.00
2015,12,08,02,39,53.10
2015,12,08,02,40,53.10
2015,12,08,02,41,57.90
2015,12,08,02,42,59.50
2015,12,08,02,43,51.50
2015,12,08,02,44,54.70
2015,12,08,02,45,56.30
2015,12,08,02,46,37.00
2015,12,08,02,47,43.50
2015,12,08,02,48,49.90
2015,12,08,02,49,41.80
2015,12,08,02,50,46.70
2015,12,08,02,51,59.50
2015,12,08,02,52,41.80
2015,12,08,02,53,45.10
2015,12,08,02,54,37.00
2015,12,08,02,55,51.50
2015,12,08,02,56,59.50
2015,12,08,02,57,46.70
2015,12,08,02,58,46.70
2015,12,08,02,59,49.90
2015,12,08,03,00,41.80
2015,12,08,03,01,37.00
2015,12,08,03,02,38.60
2015,12,08,03,03,51.50
2015,12,08,03,04,41.80
2015,12,08,03,05,48.30
2015,12,08,03,06,37.00
2015,12,08,03,07,48.30
2015,12,08,03,08,40.20
2015,12,08,03,09,38.60
2015,12,08,03,10,43.50
2015,12,08,03,11,49.90
2015,12,08,03,12,53.10
2015,12,08,03,13,48.30
2015,12,08,03,14,38.60
2015,12,08,03,15,49.90
2015,12,08,03,16,48.30
2015,12,08,03,17,46.70
2015,12,08,03,18,51.50
2015,12,08,03,19,45.10
2015,12,08,03,20,41.80
2015,12,08,03,21,32.20
2015,12,08,03,22,40.20
2015,12,08,03,23,49.90
2015,12,08,03,24,32.20
2015,12,08,03,25,37.00
2015,12,08,03,26,57.90
2015,12,08,03,27,45.10
2015,12,08,03,28,41.80
2015,12,08,03,29,40.20
2015,12,08,03,30,45.10
2015,12,08,03,31,53.10
2015,12,08,03,32,45.10
2015,12,08,03,33,41.80
2015,12,08,03,34,49.90
2015,12,08,03,35,45.10
2015,12,08,03,36,43.50
2015,12,08,03,37,43.50
2015,12,08,03,38,35.40
2015,12,08,03,39,41.80
2015,12,08,03,40,43.50
2015,12,08,03,41,54.70
2015,12,08,03,42,46.70
2015,12,08,03,43,53.10
2015,12,08,03,44,43.50
2015,12,08,03,45,51.50
2015,12,08,03,46,41.80
2015,12,08,03,47,49.90
2015,12,08,03,48,46.70
2015,12,08,03,49,56.30
2015,12,08,03,50,56.30
2015,12,08,03,51,51.50
2015,12,08,03,52,51.50
2015,12,08,03,53,41.80
2015,12,08,03,54,45.10
2015,12,08,03,55,46.70
2015,12,08,03,56,54.70
2015,12,08,03,57,54.70
2015,12,08,03,58,48.30
2015,12,08,03,59,48.30
2015,12,08,04,00,51.50
2015,12,08,04,01,38.60
2015,12,08,04,02,35.40
2015,12,08,04,03,49.90
2015,12,08,04,04,46.70
2015,12,08,04,05,46.70
2015,12,08,04,06,64.40
2015,12,08,04,07,49.90
2015,12,08,04,08,59.50
2015,12,08,04,09,57.90
2015,12,08,04,10,53.10
2015,12,08,04,11,43.50
2015,12,08,04,12,49.90
2015,12,08,04,13,45.10
2015,12,08,04,14,48.30
2015,12,08,04,15,59.50
2015,12,08,04,16,43.50
2015,12,08,04,17,51.50
2015,12,08,04,18,37.00
2015,12,08,04,19,53.10
2015,12,08,04,20,41.80
2015,12,08,04,21,46.70
2015,12,08,04,22,46.70
2015,12,08,04,23,48.30
2015,12,08,04,24,49.90
2015,12,08,04,25,49.90
2015,12,08,04,26,51.50
2015,12,08,04,27,48.30
2015,12,08,04,28,38.60
2015,12,08,04,29,41.80
2015,12,08,04,30,62.70
2015,12,08,04,31,51.50
2015,12,08,04,32,32.20
2015,12,08,04,33,48.30
2015,12,08,04,34,48.30
2015,12,08,04,35,49.90
2015,12,08,04,36,51.50
2015,12,08,04,37,48.30
2015,12,08,04,38,49.90
2015,12,08,04,39,48.30
2015,12,08,04,40,51.50
2015,12,08,04,41,45.10
2015,12,08,04,42,40.20
2015,12,08,04,43,49.90
2015,12,08,04,44,53.10
2015,12,08,04,45,43.50
2015,12,08,04,46,43.50
2015,12,08,04,47,57.90
2015,12,08,04,48,38.60
2015,12,08,04,49,43.50
2015,12,08,04,50,54.70
2015,12,08,04,51,43.50
2015,12,08,04,52,51.50
2015,12,08,04,53,43.50
2015,12,08,04,54,48.30
2015,12,08,04,55,48.30
2015,12,08,04,56,49.90
2015,12,08,04,57,53.10
2015,12,08,04,58,62.70
2015,12,08,04,59,35.40
2015,12,08,05,00,38.60
2015,12,08,05,01,46.70
2015,12,08,05,02,43.50
2015,12,08,05,03,57.90
2015,12,08,05,04,57.90
2015,12,08,05,05,56.30
2015,12,08,05,06,48.30
2015,12,08,05,07,40.20
2015,12,08,05,08,54.70
2015,12,08,05,09,54.70
2015,12,08,05,10,54.70
2015,12,08,05,11,51.50
2015,12,08,05,12,53.10
2015,12,08,05,13,41.80
2015,12,08,05,14,49.90
2015,12,08,05,15,48.30
2015,12,08,05,16,38.60
2015,12,08,05,17,41.80
2015,12,08,05,18,48.30
2015,12,08,05,19,38.60
2015,12,08,05,20,41.80
2015,12,08,05,21,46.70
2015,12,08,05,22,35.40
2015,12,08,05,23,46.70
2015,12,08,05,24,45.10
2015,12,08,05,25,51.50
2015,12,08,05,26,45.10
2015,12,08,05,27,46.70
2015,12,08,05,28,51.50
2015,12,08,05,29,40.20
2015,12,08,05,30,59.50
2015,12,08,05,31,37.00
2015,12,08,05,32,37.00
2015,12,08,05,33,54.70
2015,12,08,05,34,46.70
2015,12,08,05,35,45.10
2015,12,08,05,36,51.50
2015,12,08,05,37,46.70
2015,12,08,05,38,30.60
2015,12,08,05,39,53.10
2015,12,08,05,40,45.10
2015,12,08,05,41,46.70
2015,12,08,05,42,56.30
2015,12,08,05,43,41.80
2015,12,08,05,44,46.70
2015,12,08,05,45,53.10
2015,12,08,05,46,56.30
2015,12,08,05,47,45.10
2015,12,08,05,48,48.30
2015,12,08,05,49,29.00
2015,12,08,05,50,38.60
2015,12,08,05,51,48.30
2015,12,08,05,52,48.30
2015,12,08,05,53,40.20
2015,12,08,05,54,40.20
2015,12,08,05,55,38.60
2015,12,08,05,56,53.10
2015,12,08,05,57,49.90
2015,12,08,05,58,38.60
2015,12,08,05,59,56.30
2015,12,08,06,00,48.30
2015,12,08,06,01,51.50
2015,12,08,06,02,54.70
2015,12,08,06,03,53.10
2015,12,08,06,04,41.80
2015,12,08,06,05,37.00
2015,12,08,06,06,41.80
2015,12,08,06,07,37.00
2015,12,08,06,08,48.30
2015,12,08,06,09,45.10
2015,12,08,06,10,30.60
2015,12,08,06,11,32.20
2015,12,08,06,12,33.80
2015,12,08,06,13,45.10
2015,12,08,06,14,41.80
2015,12,08,06,15,35.40
2015,12,08,06,16,37.00
2015,12,08,06,17,40.20
2015,12,08,06,18,46.70
2015,12,08,06,19,29.00
2015,12,08,06,20,33.80
2015,12,08,06,21,32.20
2015,12,08,06,22,35.40
2015,12,08,06,23,37.00
2015,12,08,06,24,33.80
2015,12,08,06,25,33.80
2015,12,08,06,26,43.50
2015,12,08,06,27,40.20
2015,12,08,06,28,40.20
2015,12,08,06,29,45.10
2015,12,08,06,30,51.50
2015,12,08,06,31,45.10
2015,12,08,06,32,38.60
2015,12,08,06,33,48.30
2015,12,08,06,34,33.80
2015,12,08,06,35,40.20
2015,12,08,06,36,35.40
2015,12,08,06,37,48.30
2015,12,08,06,38,38.60
2015,12,08,06,39,43.50
2015,12,08,06,40,48.30
2015,12,08,06,41,38.60
2015,12,08,06,42,35.40
2015,12,08,06,43,41.80
2015,12,08,06,44,37.00
2015,12,08,06,45,43.50
2015,12,08,06,46,43.50
2015,12,08,06,47,41.80
2015,12,08,06,48,57.90
2015,12,08,06,49,43.50
2015,12,08,06,50,51.50
2015,12,08,06,51,43.50
2015,12,08,06,52,53.10
2015,12,08,06,53,46.70
2015,12,08,06,54,38.60
2015,12,08,06,55,43.50
2015,12,08,06,56,45.10
2015,12,08,06,57,51.50
2015,12,08,06,58,62.70
2015,12,08,06,59,46.70
2015,12,08,07,00,49.90
2015,12,08,07,01,49.90
2015,12,08,07,02,49.90
2015,12,08,07,03,40.20
2015,12,08,07,04,43.50
2015,12,08,07,05,41.80
2015,12,08,07,06,46.70
2015,12,08,07,07,43.50
2015,12,08,07,08,45.10
2015,12,08,07,09,59.50
2015,12,08,07,10,49.90
2015,12,08,07,11,51.50
2015,12,08,07,12,48.30
2015,12,08,07,13,61.20
2015,12,08,07,14,49.90
2015,12,08,07,15,53.10
2015,12,08,07,16,35.40
2015,12,08,07,17,45.10
2015,12,08,07,18,45.10
2015,12,08,07,19,45.10
2015,12,08,07,20,35.40
2015,12,08,07,21,41.80
2015,12,08,07,22,49.90
2015,12,08,07,23,49.90
2015,12,08,07,24,54.70
2015,12,08,07,25,53.10
2015,12,08,07,26,46.70
2015,12,08,07,27,49.90
2015,12,08,07,28,37.00
2015,12,08,07,29,43.50
2015,12,08,07,30,41.80
2015,12,08,07,31,32.20
2015,12,08,07,32,45.10
2015,12,08,07,33,43.50
2015,12,08,07,34,41.80
2015,12,08,07,35,48.30
2015,12,08,07,36,49.90
2015,12,08,07,37,57.90
2015,12,08,07,38,46.70
2015,12,08,07,39,45.10
2015,12,08,07,40,40.20
2015,12,08,07,41,45.10
2015,12,08,07,42,45.10
2015,12,08,07,43,48.30
2015,12,08,07,44,43.50
2015,12,08,07,45,41.80
2015,12,08,07,46,54.70
2015,12,08,07,47,38.60
2015,12,08,07,48,49.90
2015,12,08,07,49,46.70
2015,12,08,07,50,35.40
2015,12,08,07,51,51.50
2015,12,08,07,52,41.80
2015,12,08,07,53,41.80
2015,12,08,07,54,40.20
2015,12,08,07,55,43.50
2015,12,08,07,56,37.00
2015,12,08,07,57,48.30
2015,12,08,07,58,38.60
2015,12,08,07,59,37.00
2015,12,08,08,00,41.80
2015,12,08,08,01,40.20
2015,12,08,08,02,41.80
2015,12,08,08,03,41.80
2015,12,08,08,04,41.80
2015,12,08,08,05,43.50
2015,12,08,08,06,46.70
2015,12,08,08,07,41.80
2015,12,08,08,08,43.50
2015,12,08,08,09,37.00
2015,12,08,08,10,41.80
2015,12,08,08,11,30.60
2015,12,08,08,12,41.80
2015,12,08,08,13,41.80
2015,12,08,08,14,43.50
2015,12,08,08,15,37.00
2015,12,08,08,16,38.60
2015,12,08,08,17,33.80
2015,12,08,08,18,32.20
2015,12,08,08,19,41.80
2015,12,08,08,20,35.40
2015,12,08,08,21,32.20
2015,12,08,08,22,37.00
2015,12,08,08,23,38.60
2015,12,08,08,24,38.60
2015,12,08,08,25,40.20
2015,12,08,08,26,25.70
2015,12,08,08,27,30.60
2015,12,08,08,28,33.80
2015,12,08,08,29,30.60
2015,12,08,08,30,33.80
2015,12,08,08,31,35.40
2015,12,08,08,32,24.20
2015,12,08,08,33,25.70
2015,12,08,08,34,30.60
2015,12,08,08,35,33.80
2015,12,08,08,36,20.90
2015,12,08,08,37,22.50
2015,12,08,08,38,22.50
2015,12,08,08,39,22.50
2015,12,08,08,40,24.20
2015,12,08,08,41,22.50
2015,12,08,08,42,20.90
2015,12,08,08,43,25.70
2015,12,08,08,44,17.70
2015,12,08,08,45,16.10
2015,12,08,08,46,17.70
2015,12,08,08,47,20.90
2015,12,08,08,48,20.90
2015,12,08,08,49,22.50
2015,12,08,08,50,20.90
2015,12,08,08,51,20.90
2015,12,08,08,52,19.30
2015,12,08,08,53,16.10
2015,12,08,08,54,24.20
2015,12,08,08,55,16.10
2015,12,08,08,56,14.50
2015,12,08,08,57,16.10
2015,12,08,08,58,16.10
2015,12,08,08,59,12.90
2015,12,08,09,00,11.30
2015,12,08,09,01,11.30
2015,12,08,09,02,11.30
2015,12,08,09,03,12.90
2015,12,08,09,04,14.50
2015,12,08,09,05,16.10
2015,12,08,09,06,19.30
2015,12,08,09,07,20.90
2015,12,08,09,08,16.10
2015,12,08,09,09,11.30
2015,12,08,09,10,16.10
2015,12,08,09,11,22.50
2015,12,08,09,12,17.70
2015,12,08,09,13,12.90
2015,12,08,09,14,17.70
2015,12,08,09,15,14.50
2015,12,08,09,16,20.90
2015,12,08,09,17,12.90
2015,12,08,09,18,12.90
2015,12,08,09,19,9.60
2015,12,08,09,20,8.10
2015,12,08,09,21,9.60
2015,12,08,09,22,8.10
2015,12,08,09,23,9.60
2015,12,08,09,24,12.90
2015,12,08,09,25,6.40
2015,12,08,09,26,12.90
2015,12,08,09,27,12.90
2015,12,08,09,28,11.30
2015,12,08,09,29,9.60
2015,12,08,09,30,6.40
2015,12,08,09,31,8.10
2015,12,08,09,32,8.10
2015,12,08,09,33,11.30
2015,12,08,09,34,12.90
2015,12,08,09,35,8.10
2015,12,08,09,36,3.20
2015,12,08,09,37,4.80
2015,12,08,09,38,4.80
2015,12,08,09,39,11.30
2015,12,08,09,40,12.90
2015,12,08,09,41,9.60
2015,12,08,09,42,8.10
2015,12,08,09,43,3.20
2015,12,08,09,44,8.10
2015,12,08,09,45,6.40
2015,12,08,09,46,8.10
2015,12,08,09,47,3.20
2015,12,08,09,48,3.20
2015,12,08,09,49,1.60
2015,12,08,09,50,3.20
2015,12,08,09,51,1.60
2015,12,08,09,52,3.20
2015,12,08,09,53,6.40
2015,12,08,09,54,4.80
2015,12,08,09,55,4.80
2015,12,08,09,56,3.20
2015,12,08,09,57,4.80
2015,12,08,09,58,3.20
2015,12,08,09,59,4.80
2015,12,08,10,00,3.20
2015,12,08,10,01,4.80
2015,12,08,10,02,4.80
2015,12,08,10,03,3.20
2015,12,08,10,04,3.20
2015,12,08,10,05,3.20
2015,12,08,10,06,6.40
2015,12,08,10,07,11.30
2015,12,08,10,08,12.90
2015,12,08,10,09,11.30
2015,12,08,10,10,12.90
2015,12,08,10,11,12.90
2015,12,08,10,12,11.30
2015,12,08,10,13,12.90
2015,12,08,10,14,12.90
2015,12,08,10,15,17.70
2015,12,08,10,16,11.30
2015,12,08,10,17,11.30
2015,12,08,10,18,3.20
2015,12,08,10,19,3.20
2015,12,08,10,20,8.10
2015,12,08,10,21,11.30
2015,12,08,10,22,9.60
2015,12,08,10,23,9.60
2015,12,08,10,24,8.10
2015,12,08,10,25,11.30
2015,12,08,10,26,11.30
2015,12,08,10,27,9.60
2015,12,08,10,28,6.40
2015,12,08,10,29,4.80
2015,12,08,10,30,4.80
2015,12,08,10,31,4.80
2015,12,08,10,32,3.20
2015,12,08,10,33,3.20
2015,12,08,10,34,6.40
2015,12,08,10,35,12.90
2015,12,08,10,36,12.90
2015,12,08,10,37,12.90
2015,12,08,10,38,12.90
2015,12,08,10,39,12.90
2015,12,08,10,40,14.50
2015,12,08,10,41,11.30
2015,12,08,10,42,11.30
2015,12,08,10,43,11.30
2015,12,08,10,44,11.30
2015,12,08,10,45,9.60
2015,12,08,10,46,6.40
2015,12,08,10,47,3.20
2015,12,08,10,48,8.10
2015,12,08,10,49,8.10
2015,12,08,10,50,1.60
2015,12,08,10,51,3.20
2015,12,08,10,52,1.60
2015,12,08,10,53,1.60
2015,12,08,10,54,3.20
2015,12,08,10,55,1.60
2015,12,08,10,56,1.60
2015,12,08,10,57,3.20
2015,12,08,10,58,3.20
2015,12,08,10,59,3.20
2015,12,08,11,00,6.40
2015,12,08,11,01,4.80
2015,12,08,11,02,6.40
2015,12,08,11,03,6.40
2015,12,08,11,04,4.80
2015,12,08,11,05,4.80
2015,12,08,11,06,4.80
2015,12,08,11,07,3.20
2015,12,08,11,08,3.20
2015,12,08,11,09,1.60
2015,12,08,11,10,1.60
2015,12,08,11,11,3.20
2015,12,08,11,12,3.20
2015,12,08,11,13,3.20
2015,12,08,11,14,3.20
2015,12,08,11,16,1.60
2015,12,08,11,17,1.60
2015,12,08,11,18,1.60
2015,12,08,11,19,1.60
2015,12,08,11,20,3.20
2015,12,08,11,21,1.60
2015,12,08,11,22,1.60
2015,12,08,11,23,4.80
2015,12,08,11,24,4.80
2015,12,08,11,25,4.80
2015,12,08,11,26,6.40
2015,12,08,11,27,4.80
2015,12,08,11,28,3.20
2015,12,08,11,29,1.60
2015,12,08,11,30,6.40
2015,12,08,11,31,4.80
2015,12,08,11,32,6.40
2015,12,08,11,33,9.60
2015,12,08,11,34,4.80
2015,12,08,11,35,1.60
2015,12,08,11,36,16.10
2015,12,08,11,37,12.90
2015,12,08,11,38,4.80
2015,12,08,11,39,11.30
2015,12,08,11,40,8.10
2015,12,08,11,41,9.60
2015,12,08,11,42,9.60
2015,12,08,11,43,14.50
2015,12,08,11,44,12.90
2015,12,08,11,45,11.30
2015,12,08,11,46,12.90
2015,12,08,11,47,11.30
2015,12,08,11,48,6.40
2015,12,08,11,49,8.10
2015,12,08,11,50,8.10
2015,12,08,11,51,11.30
2015,12,08,11,52,12.90
2015,12,08,11,53,8.10
2015,12,08,11,54,8.10
2015,12,08,11,55,9.60
2015,12,08,11,56,9.60
2015,12,08,11,57,4.80
2015,12,08,11,58,11.30
2015,12,08,11,59,9.60
2015,12,08,12,00,4.80
2015,12,08,12,01,8.10
2015,12,08,12,02,6.40
2015,12,08,12,03,8.10
2015,12,08,12,04,6.40
2015,12,08,12,05,11.30
2015,12,08,12,06,11.30
2015,12,08,12,07,8.10
2015,12,08,12,08,6.40
2015,12,08,12,09,6.40
2015,12,08,12,10,8.10
2015,12,08,12,11,8.10
2015,12,08,12,12,11.30
2015,12,08,12,13,16.10
2015,12,08,12,14,6.40
2015,12,08,12,15,12.90
2015,12,08,12,16,11.30
2015,12,08,12,17,16.10
2015,12,08,12,18,11.30
2015,12,08,12,19,11.30
2015,12,08,12,20,11.30
2015,12,08,12,21,9.60
2015,12,08,12,22,12.90
2015,12,08,12,23,12.90
2015,12,08,12,24,14.50
2015,12,08,12,25,11.30
2015,12,08,12,26,14.50
2015,12,08,12,27,16.10
2015,12,08,12,28,12.90
2015,12,08,12,29,12.90
2015,12,08,12,30,8.10
2015,12,08,12,31,12.90
2015,12,08,12,32,12.90
2015,12,08,12,33,12.90
2015,12,08,12,34,6.40
2015,12,08,12,35,12.90
2015,12,08,12,36,8.10
2015,12,08,12,37,8.10
2015,12,08,12,38,12.90
2015,12,08,12,39,8.10
2015,12,08,12,40,11.30
2015,12,08,12,41,11.30
2015,12,08,12,42,16.10
2015,12,08,12,43,14.50
2015,12,08,12,44,12.90
2015,12,08,12,45,16.10
2015,12,08,12,46,11.30
2015,12,08,12,47,11.30
2015,12,08,12,48,14.50
2015,12,08,12,49,11.30
2015,12,08,12,50,14.50
2015,12,08,12,51,12.90
2015,12,08,12,52,11.30
2015,12,08,12,53,12.90
2015,12,08,12,54,12.90
2015,12,08,12,55,12.90
2015,12,08,12,56,8.10
2015,12,08,12,57,6.40
2015,12,08,12,58,12.90
2015,12,08,12,59,11.30
2015,12,08,13,00,14.50
2015,12,08,13,01,8.10
2015,12,08,13,02,8.10
2015,12,08,13,03,14.50
2015,12,08,13,04,12.90
2015,12,08,13,05,16.10
2015,12,08,13,06,9.60
2015,12,08,13,07,11.30
2015,12,08,13,08,22.50
2015,12,08,13,09,16.10
2015,12,08,13,10,9.60
2015,12,08,13,11,12.90
2015,12,08,13,12,17.70
2015,12,08,13,13,11.30
2015,12,08,13,14,12.90
2015,12,08,13,15,11.30
2015,12,08,13,16,9.60
2015,12,08,13,17,6.40
2015,12,08,13,18,6.40
2015,12,08,13,19,9.60
2015,12,08,13,20,16.10
2015,12,08,13,21,9.60
2015,12,08,13,22,6.40
2015,12,08,13,23,14.50
2015,12,08,13,24,11.30
2015,12,08,13,25,4.80
2015,12,08,13,26,4.80
2015,12,08,13,27,4.80
2015,12,08,13,28,8.10
2015,12,08,13,29,8.10
2015,12,08,13,30,6.40
2015,12,08,13,31,4.80
2015,12,08,13,32,8.10
2015,12,08,13,33,8.10
2015,12,08,13,34,6.40
2015,12,08,13,35,8.10
2015,12,08,13,36,8.10
2015,12,08,13,37,17.70
2015,12,08,13,38,16.10
2015,12,08,13,39,6.40
2015,12,08,13,40,4.80
2015,12,08,13,41,9.60
2015,12,08,13,42,8.10
2015,12,08,13,43,4.80
2015,12,08,13,44,3.20
2015,12,08,13,45,3.20
2015,12,08,13,46,4.80
2015,12,08,13,47,4.80
2015,12,08,13,48,9.60
2015,12,08,13,49,4.80
2015,12,08,13,50,4.80
2015,12,08,13,51,4.80
2015,12,08,13,52,4.80
2015,12,08,13,53,4.80
2015,12,08,13,54,4.80
2015,12,08,13,55,4.80
2015,12,08,13,56,4.80
2015,12,08,13,57,4.80
2015,12,08,13,58,3.20
2015,12,08,13,59,8.10
2015,12,08,14,00,6.40
2015,12,08,14,01,4.80
2015,12,08,14,02,3.20
2015,12,08,14,03,4.80
2015,12,08,14,04,3.20
2015,12,08,14,07,3.20
2015,12,08,14,08,1.60
2015,12,08,14,10,1.60
2015,12,08,14,14,3.20
2015,12,08,14,15,4.80
2015,12,08,14,16,6.40
2015,12,08,14,17,6.40
2015,12,08,14,18,6.40
2015,12,08,14,19,6.40
2015,12,08,14,20,3.20
2015,12,08,14,21,6.40
2015,12,08,14,22,4.80
2015,12,08,14,23,4.80
2015,12,08,14,24,4.80
2015,12,08,14,25,4.80
2015,12,08,14,26,3.20
2015,12,08,14,27,3.20
2015,12,08,14,28,3.20
2015,12,08,14,29,4.80
2015,12,08,14,30,6.40
2015,12,08,14,31,6.40
2015,12,08,14,32,3.20
2015,12,08,14,33,3.20
2015,12,08,14,34,1.60
2015,12,08,14,35,3.20
2015,12,08,14,36,3.20
2015,12,08,14,37,3.20
2015,12,08,14,38,3.20
2015,12,08,14,39,3.20
2015,12,08,14,41,3.20
2015,12,08,14,42,3.20
2015,12,08,14,43,3.20
2015,12,08,14,44,3.20
2015,12,08,14,45,1.60
2015,12,08,14,46,1.60
2015,12,08,14,48,1.60
2015,12,08,14,49,1.60
2015,12,08,14,50,1.60
2015,12,08,14,51,1.60
2015,12,08,14,52,3.20
2015,12,08,14,53,6.40
2015,12,08,14,54,8.10
2015,12,08,14,55,4.80
2015,12,08,14,56,4.80
2015,12,08,14,57,4.80
2015,12,08,14,58,3.20
2015,12,08,14,59,3.20
2015,12,08,15,00,3.20
2015,12,08,15,01,3.20
2015,12,08,15,02,3.20
2015,12,08,15,03,4.80
2015,12,08,15,04,4.80
2015,12,08,15,05,3.20
2015,12,08,15,06,3.20
2015,12,08,15,07,1.60
2015,12,08,15,10,1.60
2015,12,08,15,11,1.60
2015,12,08,15,12,1.60
2015,12,08,15,13,1.60
2015,12,08,15,14,1.60
2015,12,08,15,15,3.20
2015,12,08,15,16,3.20
2015,12,08,15,17,3.20
2015,12,08,15,18,3.20
2015,12,08,15,19,3.20
2015,12,08,15,20,6.40
2015,12,08,15,21,6.40
2015,12,08,15,22,4.80
2015,12,08,15,23,4.80
2015,12,08,15,24,3.20
2015,12,08,15,25,3.20
2015,12,08,15,26,3.20
2015,12,08,15,27,3.20
2015,12,08,15,28,3.20
2015,12,08,15,29,3.20
2015,12,08,15,30,1.60
2015,12,08,15,34,3.20
2015,12,08,15,35,4.80
2015,12,08,15,36,6.40
2015,12,08,15,37,6.40
2015,12,08,15,38,3.20
2015,12,08,15,39,3.20
2015,12,08,15,40,1.60
2015,12,08,15,41,3.20
2015,12,08,15,42,4.80
2015,12,08,15,43,4.80
2015,12,08,15,44,4.80
2015,12,08,15,45,3.20
2015,12,08,15,46,3.20
2015,12,08,15,47,4.80
2015,12,08,15,48,3.20
2015,12,08,15,49,1.60
2015,12,08,15,50,1.60
2015,12,08,15,51,3.20
2015,12,08,15,52,4.80
2015,12,08,15,53,4.80
2015,12,08,15,54,4.80
2015,12,08,15,55,6.40
2015,12,08,15,56,8.10
2015,12,08,15,57,6.40
2015,12,08,15,58,6.40
2015,12,08,15,59,4.80
2015,12,08,16,00,6.40
2015,12,08,16,01,6.40
2015,12,08,16,02,4.80
2015,12,08,16,03,6.40
2015,12,08,16,04,4.80
2015,12,08,16,05,3.20
2015,12,08,16,06,3.20
2015,12,08,16,07,3.20
2015,12,08,16,08,3.20
2015,12,08,16,09,1.60
2015,12,08,16,10,3.20
2015,12,08,16,11,4.80
2015,12,08,16,12,3.20
2015,12,08,16,13,3.20
2015,12,08,16,14,1.60
2015,12,08,16,23,4.80
2015,12,08,16,24,4.80
2015,12,08,16,25,3.20
2015,12,08,16,29,3.20
2015,12,08,16,30,4.80
2015,12,08,16,31,3.20
2015,12,08,16,32,1.60
2015,12,08,16,33,3.20
2015,12,08,16,34,3.20
2015,12,08,16,35,3.20
2015,12,08,16,36,3.20
2015,12,08,16,37,3.20
2015,12,08,16,39,3.20
2015,12,08,16,40,1.60
2015,12,08,16,41,1.60
2015,12,08,16,42,1.60
2015,12,08,16,43,1.60
2015,12,08,16,44,1.60
2015,12,08,16,46,1.60
2015,12,08,16,47,3.20
2015,12,08,16,48,4.80
2015,12,08,16,49,4.80
2015,12,08,16,50,4.80
2015,12,08,16,51,3.20
2015,12,08,16,52,4.80
2015,12,08,16,53,4.80
2015,12,08,16,54,3.20
2015,12,08,16,55,3.20
2015,12,08,16,56,3.20
2015,12,08,16,57,3.20
2015,12,08,16,58,3.20
2015,12,08,16,59,4.80
2015,12,08,17,00,6.40
2015,12,08,17,01,6.40
2015,12,08,17,02,6.40
2015,12,08,17,03,6.40
2015,12,08,17,04,6.40
2015,12,08,17,05,6.40
2015,12,08,17,06,4.80
2015,12,08,17,07,3.20
2015,12,08,17,08,1.60
2015,12,08,17,09,1.60
2015,12,08,17,10,1.60
2015,12,08,17,11,1.60
2015,12,08,17,12,1.60
2015,12,08,17,13,3.20
2015,12,08,17,14,1.60
2015,12,08,17,15,3.20
2015,12,08,17,16,3.20
2015,12,08,17,17,4.80
2015,12,08,17,18,3.20
2015,12,08,17,19,1.60
2015,12,08,17,21,1.60
2015,12,08,17,22,4.80
2015,12,08,17,23,6.40
2015,12,08,17,24,6.40
2015,12,08,17,25,4.80
2015,12,08,17,26,4.80
2015,12,08,17,27,4.80
2015,12,08,17,28,3.20
2015,12,08,17,29,1.60
2015,12,08,17,30,1.60
2015,12,08,17,31,3.20
2015,12,08,17,32,3.20
2015,12,08,17,33,4.80
2015,12,08,17,34,3.20
2015,12,08,17,45,3.20
2015,12,08,17,46,3.20
2015,12,08,17,47,3.20
2015,12,08,17,48,3.20
2015,12,08,17,49,3.20
2015,12,08,17,50,1.60
2015,12,08,17,51,4.80
2015,12,08,17,52,4.80
2015,12,08,17,53,4.80
2015,12,08,17,54,3.20
2015,12,08,17,55,3.20
2015,12,08,17,56,1.60
2015,12,08,18,00,1.60
2015,12,08,18,02,1.60
2015,12,08,18,03,1.60
2015,12,08,18,07,1.60
2015,12,08,18,08,1.60
2015,12,08,18,09,3.20
2015,12,08,18,10,3.20
2015,12,08,18,11,3.20
2015,12,08,18,12,4.80
2015,12,08,18,13,4.80
2015,12,08,18,14,6.40
2015,12,08,18,15,8.10
2015,12,08,18,16,8.10
2015,12,08,18,17,8.10
2015,12,08,18,18,8.10
2015,12,08,18,19,6.40
2015,12,08,18,20,3.20
2015,12,08,18,53,1.60